K2MST Weather Reports


time (UTC)temp
F
wind
direction
speed
knots
gust
knots
rain 1hr
in
rain 24hr
in
rain mn
in
humidity
%
barometer
mb
20260506100018 45 90 0.9 2.6 0.06 0.47 0.13 89 1006.6
20260506095059 45 45 4.3 7.8 0.05 0.46 0.12 88 1006.5
20260506094039 45 338 1.7 4.3 0.05 0.45 0.11 89 1006.7
20260506093018 46 23 2.6 5.2 0.05 0.44 0.10 88 1007.0
20260506092018 46 23 3.5 6.1 0.05 0.43 0.09 88 1007.1
20260506091018 46 23 3.5 8.7 0.05 0.42 0.08 88 1007.1
20260506090059 46 23 3.5 9.6 0.04 0.41 0.07 87 1007.2
20260506085018 46 45 4.3 9.6 0.05 0.41 0.07 88 1007.1
20260506084038 46 23 4.3 10.4 0.04 0.40 0.06 88 1007.1
20260506083018 47 23 5.2 10.4 0.03 0.39 0.05 88 1007.1
20260506082018 48 23 6.1 11.3 0.02 0.38 0.04 88 1007.1
20260506081038 49 23 3.5 8.7 0.01 0.37 0.03 89 1006.9
20260506073018 49 68 1.7 3.5 0.00 0.38 0.02 88 1006.6
20260506072018 49 68 2.6 5.2 0.00 0.38 0.02 87 1006.5
20260506071018 49 45 0.9 3.5 0.00 0.38 0.02 88 1006.7
20260506062018 49 90 1.7 6.1 0.02 0.38 0.02 88 1007.3
20260506061017 50 113 1.7 4.3 0.02 0.38 0.02 87 1007.2
20260506051017 49 68 2.6 4.3 0.00 0.36 0.00 88 1008.0
20260506045037 49 90 1.7 4.3 0.00 0.36 0.00 89 1008.4
20260506044017 49 68 1.7 4.3 0.01 0.36 0.00 89 1008.1
20260506043037 49 90 0.9 4.3 0.02 0.36 0.00 89 1008.3
20260506042017 49 0.0 1.7 0.03 0.36 0.00 89 1008.6
20260506041017 49 68 2.6 6.1 0.04 0.36 0.00 89 1008.2
20260506040017 49 90 1.7 3.5 0.05 0.36 0.36 89 1008.5
20260506035018 49 45 2.6 7.8 0.06 0.36 0.36 89 1008.3
20260506034017 49 90 1.7 5.2 0.06 0.35 0.35 89 1009.0
20260506033017 49 23 0.9 2.6 0.06 0.34 0.34 89 1008.8
20260506032017 49 0.0 1.7 0.07 0.33 0.33 89 1008.6
20260506031037 49 0.0 1.7 0.09 0.32 0.32 89 1008.9
20260506030017 49 338 0.9 2.6 0.09 0.31 0.31 89 1008.5
20260506025017 49 338 0.9 3.5 0.10 0.30 0.30 88 1008.6
20260506024017 50 315 0.9 2.6 0.09 0.29 0.29 88 1008.7
20260506023037 50 315 0.9 1.7 0.08 0.28 0.28 88 1008.9
20260506022017 50 338 1.7 3.5 0.07 0.26 0.26 87 1008.8
20260506021017 50 293 0.9 2.6 0.04 0.23 0.23 88 1009.3
20260506020017 50 23 1.7 4.3 0.05 0.22 0.22 87 1008.4
20260506015017 50 338 1.7 2.6 0.03 0.20 0.20 87 1008.1
20260506014017 50 23 2.6 5.2 0.03 0.20 0.20 86 1008.1
20260506013017 50 23 2.6 4.3 0.04 0.20 0.20 85 1008.6
20260506012017 50 338 3.5 5.2 0.03 0.19 0.19 84 1008.5
20260506011017 50 338 2.6 6.1 0.03 0.19 0.18 82 1008.5
20260506010022 51 293 2.6 5.2 0.01 0.17 0.17 81 1008.4
20260506005019 52 338 4.3 8.7 0.01 0.17 0.17 78 1008.1
20260506004019 54 338 6.1 12.2 0.01 0.17 0.17 71 1008.2
20260506003019 56 338 7.0 11.3 0.00 0.16 0.16 67 1008.1
20260506002019 57 338 4.3 8.7 0.00 0.16 0.16 64 1007.4
20260506001019 58 338 4.3 13.0 0.00 0.16 0.16 64 1007.4
20260506000019 59 338 5.2 11.3 0.00 0.16 0.16 64 1007.1
20260505235019 60 315 6.1 11.3 0.00 0.16 0.16 63 1006.7
20260505234018 60 338 5.2 10.4 0.00 0.16 0.16 63 1006.3
20260505233018 61 315 5.2 10.4 0.00 0.16 0.16 64 1006.1
20260505232018 61 338 5.2 11.3 0.00 0.16 0.16 63 1005.8
20260505231018 62 338 6.1 12.2 0.00 0.16 0.16 62 1005.5
20260505230018 63 338 3.5 8.7 0.00 0.16 0.16 66 1005.2
20260505225018 63 338 3.5 6.1 0.00 0.16 0.16 67 1004.9
20260505224019 64 338 4.3 7.8 0.00 0.16 0.16 67 1004.8
20260505223018 64 338 3.5 5.2 0.00 0.16 0.16 67 1004.5
20260505222018 64 338 4.3 8.7 0.00 0.16 0.16 68 1003.9
20260505221018 65 338 7.0 13.0 0.04 0.16 0.16 67 1004.1
20260505220018 66 338 4.3 9.6 0.05 0.16 0.16 70 1004.0
20260505215038 65 338 4.3 10.4 0.05 0.16 0.16 71 1003.7
20260505214018 66 338 3.5 7.8 0.07 0.16 0.16 77 1003.8
20260505213018 65 225 2.6 6.1 0.07 0.16 0.16 80 1003.5
20260505212018 64 225 4.3 10.4 0.07 0.16 0.16 80 1003.4
20260505211018 65 248 3.5 10.4 0.03 0.12 0.12 79 1003.4
20260505210018 67 180 7.0 14.8 0.02 0.11 0.11 74 1003.3
20260505205018 70 180 7.8 16.5 0.02 0.11 0.11 68 1003.2
20260505204038 71 180 5.2 10.4 0.00 0.09 0.09 64 1002.9
20260505203018 71 225 2.6 7.8 0.00 0.09 0.09 63 1002.6
20260505202018 71 225 3.5 7.8 0.00 0.09 0.09 63 1002.8
20260505201017 72 270 2.6 6.1 0.00 0.09 0.09 63 1002.9
20260505200017 71 225 3.5 9.6 0.00 0.09 0.09 63 1002.9
20260505195018 71 225 3.5 7.8 0.00 0.09 0.09 65 1003.0
20260505194017 73 248 4.3 8.7 0.00 0.09 0.09 62 1003.0
20260505193018 71 203 2.6 4.3 0.02 0.09 0.09 69 1002.9
20260505192017 69 180 3.5 6.1 0.03 0.09 0.09 72 1003.2
20260505191017 66 203 2.6 5.2 0.06 0.09 0.09 77 1003.2
20260505190017 65 225 0.9 2.6 0.07 0.09 0.09 78 1003.3
20260505185018 63 248 0.9 2.6 0.07 0.09 0.09 79 1003.3
20260505184017 63 180 3.5 8.7 0.07 0.09 0.09 78 1003.3
20260505183017 64 248 6.1 12.2 0.05 0.07 0.07 76 1003.9
20260505182038 66 248 5.2 14.8 0.04 0.06 0.06 72 1003.8
20260505181017 69 293 7.0 13.0 0.01 0.03 0.03 66 1003.3
20260505180017 71 293 5.2 12.2 0.00 0.02 0.02 57 1002.8
20260505175017 71 248 4.3 7.8 0.00 0.02 0.02 57 1002.1
20260505174017 71 270 6.1 13.0 0.00 0.02 0.02 57 1002.5
20260505173017 73 225 5.2 10.4 0.00 0.02 0.02 53 1002.4
20260505172017 74 225 11.3 19.1 0.00 0.02 0.02 48 1002.4
20260505171017 74 225 9.6 16.5 0.00 0.02 0.02 48 1002.1
20260505170017 75 225 7.0 13.9 0.00 0.02 0.02 47 1002.2
20260505165017 75 203 4.3 11.3 0.00 0.02 0.02 48 1002.3
20260505164017 75 225 7.0 12.2 0.00 0.02 0.02 48 1001.9
20260505163037 75 248 8.7 15.6 0.00 0.02 0.02 48 1001.9
20260505162017 74 225 10.4 15.6 0.00 0.02 0.02 49 1001.8
20260505161017 74 225 6.1 13.9 0.00 0.02 0.02 49 1001.7
20260505153019 75 248 11.3 19.1 0.00 0.02 0.02 48 1002.3
20260505152019 75 203 10.4 19.1 0.00 0.02 0.02 49 1002.1
20260505151019 74 248 8.7 13.9 0.00 0.02 0.02 49 1002.1
20260505125018 71 203 11.3 26.1 0.00 0.02 0.02 52 1002.1
20260505124018 71 180 10.4 20.0 0.00 0.02 0.02 53 1002.1
20260505123018 70 203 11.3 22.6 0.00 0.02 0.02 54 1002.0
20260505122018 70 180 12.2 24.3 0.00 0.02 0.02 54 1002.1
20260505121038 70 203 8.7 16.5 0.00 0.02 0.02 55 1002.1
20260505120018 69 203 12.2 23.5 0.00 0.02 0.02 56 1001.9
20260505115058 68 180 11.3 20.9 0.00 0.02 0.02 56 1001.9
20260505114018 68 158 8.7 19.1 0.00 0.02 0.02 57 1001.9
20260505113018 67 203 7.0 13.9 0.00 0.02 0.02 58 1001.9
20260505112018 66 180 7.0 14.8 0.00 0.02 0.02 59 1001.8
20260505111019 66 180 7.8 14.8 0.00 0.02 0.02 59 1001.8
20260505102018 64 203 7.8 15.6 0.00 0.02 0.02 63 1001.3
20260505101017 64 180 8.7 17.4 0.00 0.02 0.02 64 1001.2